RH
67 63 58 52 45 38 37 39 38 36 33 30 32 34 37 38 38 39 40 41 41 39 39 40 41 43 44 45 47 47 49 51 51 52 53 50 47 47 51 57 63 66 67 69 70 71 72 72 73 72 71 73 74 77 80 81 83 84 85 89 91 94 96 97 97 93 88 86 84 80 78 76 74 71 68 68 65 56 51 53 58 55 44 32 25
69 63 59 53 44 38 38 40 37 35 32 31 34 35 37 38 37 40 42 41 41 40 40 41 41 43 44 46 48 49 51 53 53 54 55 56 55 54 55 58 62 65 68 70 70 71 73 74 75 73 72 75 78 81 83 83 85 87 88 93 97 97 99 100 99 96 91 88 86 84 82 80 80 76 73 75 76 74 72 72 72 66 54 46 40
69 63 57 49 41 38 40 39 36 34 32 32 34 35 36 38 39 41 42 41 42 41 42 42 43 45 46 47 49 51 52 54 55 57 59 61 62 62 61 61 64 67 70 72 71 71 74 75 73 72 74 80 82 82 85 85 87 90 91 93 97 98 98 97 99 98 94 89 86 84 81 80 79 79 78 79 78 78 77 73 65 58 52 54 51
67 60 52 42 40 40 39 38 35 34 33 33 35 36 37 39 40 42 42 42 43 43 44 45 46 47 48 49 50 51 53 55 57 59 60 61 63 64 64 65 66 68 68 69 70 72 76 78 75 73 76 82 84 83 85 87 88 90 92 93 95 98 98 97 98 97 93 89 85 82 80 79 80 80 78 74 70 68 67 65 63 60 56 57 57
60 52 44 40 41 42 39 37 35 33 33 35 36 38 39 40 41 42 43 44 44 45 47 47 48 49 50 51 52 53 55 57 59 61 60 61 63 64 66 66 66 65 64 67 70 73 77 78 75 73 77 82 84 85 87 88 89 91 93 94 95 96 99 100 98 96 94 91 87 85 84 84 84 81 76 73 70 71 74 76 75 71 65 63 66
49 43 41 42 43 41 38 35 33 33 35 37 38 40 41 42 43 43 45 46 46 48 49 49 50 51 51 52 54 55 58 60 62 63 62 63 64 64 64 64 63 63 65 68 69 70 73 76 77 79 82 86 88 90 91 90 90 92 93 94 93 95 99 102 102 101 100 98 94 91 89 87 84 82 79 77 76 79 81 78 75 73 73 73 72
42 41 43 44 43 40 37 34 33 35 37 39 41 42 43 44 45 47 47 48 49 49 50 52 52 53 54 55 57 58 60 62 63 64 65 67 67 66 62 58 58 62 67 70 71 74 79 83 86 88 88 90 91 92 93 93 93 94 94 94 93 96 101 102 103 103 102 101 98 93 90 86 82 81 80 77 76 78 77 77 78 77 75 76 74
42 44 45 44 42 38 35 35 36 38 40 42 43 43 45 47 48 49 49 50 51 52 53 54 54 55 57 58 60 61 62 63 65 65 67 67 67 64 59 58 64 71 76 80 84 89 91 91 92 92 90 90 89 90 92 93 95 95 93 91 93 97 102 103 105 105 103 102 99 93 89 85 82 81 79 79 82 83 79 78 80 78 75 77 76
44 46 46 44 41 38 37 37 39 40 42 43 44 46 47 48 49 50 51 52 53 54 55 56 57 58 59 60 62 63 63 65 65 65 69 72 73 74 75 80 88 91 92 95 97 98 97 95 92 89 88 88 88 90 92 93 96 99 95 91 93 97 100 102 103 104 104 104 101 96 92 88 83 81 79 79 81 81 77 76 81 82 79 78 77
47 47 46 43 41 40 39 40 41 43 44 44 45 47 48 50 52 53 55 56 57 58 58 58 60 60 61 63 64 64 66 66 65 72 85 92 93 94 97 98 99 100 99 99 100 100 99 98 96 95 96 97 96 98 99 98 99 99 98 98 99 100 102 103 103 104 104 103 100 96 96 94 87 83 82 80 77 76 76 78 81 81 80 83 82
49 47 45 44 43 41 41 42 44 44 45 46 47 50 52 53 56 57 59 61 61 62 62 61 62 63 64 65 66 67 70 67 71 88 101 102 100 100 101 100 99 100 100 100 100 100 99 98 97 97 97 96 94 95 96 98 99 99 98 96 92 91 95 98 99 100 101 102 99 96 96 95 89 84 83 81 80 80 80 81 82 82 84 89 88
49 47 47 45 42 42 42 44 46 46 48 50 51 53 56 57 60 61 62 62 62 66 67 66 67 67 67 70 70 73 74 71 82 99 103 99 100 100 99 100 101 100 100 100 100 99 99 98 96 96 96 94 93 93 93 94 95 99 102 102 98 94 92 93 94 97 100 101 99 96 96 94 90 88 86 85 85 84 83 83 83 85 86 88 88
49 48 48 44 42 43 44 46 49 49 51 53 54 57 59 60 63 63 63 64 66 69 71 71 73 73 74 76 76 79 79 75 86 102 102 99 101 99 99 101 100 99 100 100 100 100 100 99 98 95 90 87 88 89 87 82 78 79 84 90 94 94 91 90 91 95 99 101 102 101 98 96 97 93 89 89 91 92 92 92 89 88 88 88 87
50 49 47 44 44 45 47 50 51 52 55 56 58 61 62 64 66 67 68 69 71 73 75 76 78 79 81 82 82 86 83 78 88 102 101 100 101 99 100 101 99 100 101 99 100 100 97 96 97 91 81 78 79 76 72 70 67 68 71 75 77 77 78 80 79 79 81 86 94 95 86 81 83 81 75 76 82 87 90 92 90 89 89 86 82
50 49 47 47 47 48 51 53 54 56 59 60 62 64 65 68 70 71 73 75 76 79 80 82 84 84 86 87 88 90 87 85 95 104 100 99 101 100 100 100 100 100 100 99 99 96 94 95 96 93 89 86 81 78 79 80 80 83 86 87 86 84 84 83 77 72 69 68 75 79 75 71 72 72 69 69 73 75 75 77 79 81 84 85 84
50 50 50 50 50 52 55 57 59 61 62 64 67 68 70 72 73 75 78 80 82 85 86 87 89 88 90 91 93 95 91 89 99 105 101 100 101 99 100 101 100 100 100 99 97 93 92 91 87 88 91 87 80 81 83 83 91 100 101 99 97 96 94 88 81 79 78 77 79 82 84 83 80 77 76 77 81 81 80 82 84 84 88 90 90
52 52 53 53 53 55 58 61 63 65 66 69 71 72 74 77 77 80 84 86 88 91 91 92 92 93 96 96 98 101 95 89 98 106 103 101 100 99 100 100 99 100 101 98 95 94 90 81 78 85 90 87 82 75 63 65 85 101 102 101 101 101 99 95 91 87 82 80 82 84 88 90 86 84 84 85 89 93 96 99 96 95 96 95 93
53 54 54 53 55 58 62 65 67 69 71 73 75 77 79 81 82 85 89 92 95 96 96 97 97 99 101 101 100 103 98 91 98 105 103 100 100 100 100 100 100 100 101 99 97 96 88 76 74 84 93 92 82 65 54 66 90 101 102 103 103 101 100 95 89 80 71 73 81 85 85 84 81 80 78 78 83 91 98 99 96 97 100 96 92
53 53 53 54 58 62 66 69 71 73 75 76 78 81 83 85 88 91 95 98 99 98 99 101 102 101 102 101 99 101 101 95 94 101 104 102 101 101 99 100 100 99 99 100 99 97 93 83 71 75 92 98 84 67 67 83 98 101 100 101 101 100 94 85 83 84 85 91 95 91 83 77 74 73 70 69 73 76 77 81 86 94 99 96 90
52 54 56 58 62 67 70 73 74 75 77 79 82 85 87 91 94 96 99 101 101 102 102 102 102 101 99 100 99 99 101 96 89 96 106 103 99 101 100 99 101 100 99 101 101 98 97 90 75 72 89 98 88 80 82 87 91 93 93 97 98 93 86 86 94 99 97 92 85 76 71 67 65 63 57 54 55 53 52 58 69 80 88 91 90
56 58 60 62 67 70 73 76 78 79 81 84 87 89 91 95 98 100 102 103 102 103 102 100 101 100 98 100 100 96 96 94 87 92 103 104 100 100 101 100 99 100 100 99 100 100 99 96 86 81 90 95 87 83 83 80 79 81 85 89 88 84 88 96 97 89 80 71 63 58 54 51 50 47 43 41 42 43 42 45 54 66 77 85 89
60 62 64 67 70 73 76 79 81 83 85 87 90 93 94 97 101 103 103 103 102 102 102 100 101 101 99 98 97 93 90 88 84 84 93 102 104 99 99 101 99 100 101 101 100 100 100 99 95 93 97 99 92 86 81 75 74 80 86 87 86 89 97 95 82 72 66 61 59 59 57 56 56 53 49 44 41 40 42 44 53 66 75 80 86
62 65 69 71 74 77 79 81 82 83 85 88 92 96 98 101 104 105 104 103 102 102 103 101 100 100 99 96 93 90 86 83 82 80 82 94 104 102 100 101 96 93 99 102 102 102 101 102 100 95 92 87 78 74 76 79 84 93 95 93 95 98 95 83 72 68 66 63 67 71 70 71 74 74 71 64 53 50 58 67 76 86 90 90 90
65 70 73 75 77 79 79 80 81 81 84 89 96 100 101 102 104 105 105 105 103 102 101 100 100 101 100 97 93 90 85 80 80 77 74 81 94 102 104 96 80 78 94 104 102 102 101 94 84 75 72 74 77 83 88 89 93 98 99 99 100 94 83 74 71 71 70 71 75 79 80 82 86 89 89 87 83 83 90 96 98 99 100 98 97
70 74 75 76 77 78 80 80 79 80 84 91 98 101 101 103 104 104 106 105 103 101 100 100 101 100 100 100 96 89 84 80 77 75 72 73 82 95 103 91 70 73 95 104 98 96 94 82 70 69 74 79 81 81 75 72 81 95 101 101 96 85 77 76 74 71 73 77 81 88 93 94 95 96 96 98 100 99 96 93 90 87 85 85 85
74 75 75 75 75 77 82 82 78 79 83 89 96 100 100 103 104 104 105 104 101 101 100 100 101 100 100 100 97 90 84 80 76 74 73 75 76 80 83 75 62 65 79 82 80 84 85 75 66 66 67 66 67 69 72 79 92 101 99 95 90 84 79 76 71 72 80 87 93 99 99 96 96 98 98 98 97 93 88 87 87 86 86 88 89
77 76 75 75 76 81 86 85 81 81 84 89 95 99 100 103 105 105 106 104 101 101 101 99 100 101 100 98 96 93 88 85 82 80 78 80 80 76 72 69 64 65 70 73 74 77 74 67 62 61 64 70 76 81 85 93 98 96 90 89 89 84 77 72 74 85 95 98 97 96 95 96 99 98 96 96 95 94 95 99 100 98 96 97 100
78 78 77 78 80 83 86 86 85 86 87 91 96 100 101 103 104 104 104 103 104 104 104 103 102 101 99 99 98 97 96 94 91 87 82 80 77 74 73 73 73 75 78 80 79 76 74 74 76 78 82 84 83 81 80 86 93 96 93 90 86 78 72 71 77 85 90 91 92 95 98 100 100 98 98 99 100 100 100 100 99 99 99 98 97
80 79 79 81 81 82 83 85 87 89 91 94 96 98 100 102 102 101 99 99 102 103 102 102 102 100 100 101 100 100 101 99 94 91 88 85 81 82 83 83 84 86 86 84 86 88 90 93 95 95 94 93 91 91 92 95 98 97 90 84 78 73 72 73 77 81 86 91 97 101 102 101 99 100 101 101 101 100 98 96 96 98 99 99 94
84 81 80 80 80 82 85 86 88 92 96 98 99 99 100 101 101 102 101 99 100 102 101 100 100 100 101 101 100 100 101 99 98 99 96 88 87 94 97 96 97 98 93 91 96 100 100 100 100 100 100 100 100 100 98 96 93 87 82 79 76 75 77 79 81 85 93 100 102 101 102 103 104 103 101 101 101 98 95 96 99 100 100 97 93
88 84 81 81 80 83 89 90 91 96 99 101 103 105 103 99 98 102 105 103 100 101 102 101 100 100 101 101 100 101 100 99 100 101 93 82 85 97 102 100 99 97 96 97 100 101 99 98 98 98 98 97 96 94 91 88 86 84 83 81 79 81 83 82 83 90 98 103 102 101 102 104 104 102 100 100 100 98 97 98 99 98 99 99 95
89 85 82 82 83 87 92 94 95 99 100 101 105 107 105 100 95 95 100 103 103 101 101 101 100 100 100 100 100 100 100 99 100 100 95 91 94 100 100 96 91 91 96 101 100 97 95 93 91 90 90 89 88 87 85 85 85 87 87 86 84 85 85 85 87 95 102 103 102 101 103 102 101 101 101 100 100 99 99 99 98 98 99 99 97
86 85 83 85 86 89 93 94 96 99 100 102 106 106 104 102 99 96 96 98 100 103 103 102 101 100 101 102 102 102 101 100 100 100 99 98 99 99 97 95 93 95 100 102 97 92 88 84 82 82 82 83 83 85 88 91 91 90 89 88 87 87 88 88 88 93 100 102 99 99 102 103 102 101 101 101 100 100 100 100 100 100 99 98 98
82 84 84 87 90 91 91 92 94 97 99 104 106 104 102 101 102 103 101 97 96 98 98 97 99 99 99 100 102 103 102 101 100 100 100 101 100 99 100 100 99 100 100 96 90 85 82 81 81 82 82 83 84 88 94 98 96 94 93 91 89 89 89 87 88 95 101 97 90 92 99 103 102 102 102 101 100 100 101 101 99 99 100 99 97
82 83 84 87 90 90 88 89 92 96 100 105 106 102 101 100 101 102 102 100 98 98 95 93 94 95 96 98 100 101 101 100 99 99 100 100 99 100 103 101 96 92 88 83 81 82 83 84 85 85 85 86 86 89 97 101 100 97 96 93 91 90 89 91 95 99 96 90 89 96 101 102 102 101 100 100 101 101 101 100 100 100 100 98 94
82 83 81 81 82 84 86 89 93 97 102 106 106 102 100 101 100 100 100 100 100 100 98 94 91 90 93 96 97 98 98 98 99 101 101 101 101 102 102 97 90 85 83 81 81 85 88 89 89 88 88 89 90 91 95 99 98 97 96 96 94 92 92 96 99 96 92 93 98 99 96 96 99 100 100 101 102 101 100 100 100 99 99 96 93
81 81 79 78 79 84 89 91 96 101 104 105 104 101 100 100 100 100 100 100 100 101 100 98 95 94 93 92 90 91 92 95 100 105 102 98 96 92 87 85 86 89 89 87 87 89 91 92 94 93 91 91 91 93 95 96 97 98 99 98 96 93 93 96 97 95 95 97 95 91 93 99 102 100 101 103 104 102 100 100 100 100 99 97 95
77 77 78 80 83 89 93 96 101 103 103 102 100 100 101 101 100 100 100 100 100 101 100 100 99 99 98 93 87 87 90 94 99 101 96 89 87 84 82 84 90 94 95 93 91 93 95 95 96 96 95 92 92 94 96 96 98 100 100 98 96 96 97 98 97 96 95 94 91 92 99 104 102 100 103 107 105 102 100 100 100 100 100 98 97
75 78 81 84 88 93 98 102 105 103 100 100 100 100 100 101 100 100 100 100 100 100 100 100 100 99 98 95 91 91 95 99 101 100 95 91 92 93 94 96 97 97 97 97 96 96 97 97 97 97 97 95 94 95 97 98 99 101 101 99 98 98 100 98 96 94 93 93 95 100 103 102 100 102 106 107 104 101 100 100 100 100 100 100 99
80 83 85 87 92 97 101 104 105 102 100 100 100 100 100 100 99 100 100 99 100 100 99 100 101 98 96 95 95 97 101 103 102 101 100 99 100 100 100 101 101 100 100 99 98 98 98 97 97 97 97 96 96 97 98 99 100 102 102 100 99 100 101 99 96 95 96 97 100 102 102 101 101 103 105 104 102 100 100 100 100 100 100 100 100
85 87 88 90 95 100 103 104 102 100 100 101 100 100 100 100 100 100 100 99 100 100 99 100 100 97 95 97 98 99 99 100 99 99 100 101 100 99 98 98 99 99 99 99 98 98 99 98 97 98 98 98 97 98 99 99 100 103 105 102 100 101 101 99 97 97 97 98 100 101 101 100 101 103 103 102 100 100 100 100 100 100 100 100 100
89 90 92 96 100 104 103 101 100 100 100 100 100 100 100 100 100 100 100 100 100 100 100 100 99 97 96 98 98 96 96 97 98 98 98 98 98 98 97 97 97 97 97 97 96 96 98 99 99 99 99 98 97 98 100 100 100 103 104 103 102 102 103 102 99 97 97 97 98 100 101 100 101 102 102 101 100 100 100 100 100 100 100 100 99
93 94 97 102 105 105 102 100 100 101 100 100 100 101 100 100 100 100 100 100 100 100 100 100 99 98 98 99 99 98 98 99 99 99 99 99 99 99 99 99 98 97 96 96 95 95 97 100 101 101 100 98 97 99 101 101 100 103 105 104 103 103 103 102 100 98 98 99 99 101 101 101 101 102 103 102 101 100 100 100 100 100 100 100 100
96 99 102 105 105 103 101 100 101 101 100 101 102 101 100 100 100 100 100 100 100 100 100 100 100 100 100 99 99 99 99 99 99 99 99 99 99 99 99 99 98 98 98 98 96 95 97 100 102 102 99 96 95 98 101 101 102 103 104 104 104 104 103 102 99 97 98 100 102 102 102 101 101 103 103 102 100 100 100 100 100 99 100 100 100
100 103 104 104 102 101 100 100 101 101 101 102 102 101 101 100 100 100 100 100 100 100 100 100 100 100 100 99 99 98 99 99 98 98 99 99 99 99 99 99 99 99 99 100 99 97 97 99 102 103 101 96 93 96 100 101 102 103 104 104 104 104 102 101 100 99 99 102 104 104 102 101 102 103 102 101 100 100 100 100 100 100 100 100 100
103 104 103 102 101 100 100 100 101 101 101 102 102 101 101 100 100 100 100 100 100 100 100 100 100 99 99 99 98 98 98 98 98 98 98 98 98 98 98 99 99 99 99 101 101 97 95 97 102 104 102 97 93 96 99 101 101 103 104 103 103 102 102 102 103 102 102 104 105 103 101 101 102 102 101 100 101 101 101 100 100 100 100 99 100
104 104 102 101 101 100 100 100 101 101 101 101 101 101 101 100 100 100 99 100 101 100 100 100 99 98 99 98 98 98 98 97 97 98 98 98 99 99 99 99 100 100 100 101 101 98 96 97 101 103 102 98 96 98 100 100 101 103 103 102 102 102 103 104 104 104 104 104 103 101 100 101 102 101 100 101 101 100 100 100 100 100 100 100 100
105 105 103 101 100 100 101 101 101 100 100 101 101 101 101 100 100 101 101 101 101 100 99 99 99 98 98 98 98 97 98 97 97 98 98 99 99 99 99 100 101 100 100 101 102 100 98 98 100 102 101 99 98 100 100 100 101 101 101 101 101 103 105 105 104 104 103 102 100 100 100 101 100 100 100 101 101 100 100 100 100 100 100 100 100
105 106 103 100 100 100 101 102 101 100 100 101 101 101 102 102 101 102 102 101 100 99 99 99 99 98 98 98 98 98 98 98 98 98 99 99 99 99 100 100 100 100 101 102 103 102 99 98 100 103 99 94 93 97 100 100 100 100 100 101 101 103 105 105 104 102 101 100 100 100 100 100 100 100 100 100 100 100 100 100 100 100 100 100 100
105 105 102 100 101 101 100 100 101 101 101 102 102 102 103 103 102 102 102 100 100 100 99 99 99 99 99 99 99 99 99 99 98 98 99 99 100 100 100 101 101 102 102 103 104 100 94 93 97 102 99 94 93 95 99 100 100 100 100 100 101 102 104 104 103 102 100 100 100 100 100 100 100 99 99 100 100 100 100 100 100 100 100 100 100
107 105 101 100 101 101 100 100 102 102 104 104 104 104 105 104 103 102 102 100 100 100 100 100 100 100 100 100 100 99 99 99 99 99 100 100 101 101 101 102 103 103 103 104 104 100 93 92 96 101 101 100 100 99 100 100 100 100 99 98 100 102 103 101 101 100 100 100 100 100 100 100 100 100 100 100 100 100 100 100 100 100 100 100 100
Wind_Speed
31 29 27 26 25 24 22 21 20 20 20 20 21 22 22 21 21 20 19 18 18 17 17 17 18 18 18 19 20 20 20 20 20 21 22 21 20 19 20 20 20 21 21 21 21 20 21 22 22 22 22 22 23 22 21 20 20 20 20 19 19 18 17 17 15 17 19 17 20 23 22 22 24 23 25 27 27 27 28 28 26 25 27 29 30
31 28 26 25 25 24 22 21 20 20 20 21 22 22 22 21 20 19 19 18 17 17 18 18 19 19 19 20 20 20 20 20 21 21 21 20 20 20 20 21 22 22 22 22 22 22 22 23 23 23 23 22 22 21 21 21 21 22 21 19 20 19 17 18 18 18 19 19 19 20 19 18 22 23 22 24 24 24 26 26 25 26 28 28 29
29 27 25 24 24 22 21 20 20 21 21 22 22 22 21 20 19 19 19 18 18 18 19 19 19 19 20 20 20 21 21 21 22 21 20 20 20 21 21 22 22 23 23 23 24 24 24 24 25 24 23 22 22 21 21 22 21 22 22 21 21 21 19 18 19 19 21 20 18 18 17 15 18 19 18 20 22 23 25 28 29 30 29 28 28
26 24 23 23 21 20 20 20 20 22 22 22 21 21 20 20 19 18 18 18 18 19 19 20 20 20 20 21 21 22 22 23 23 22 21 21 21 22 23 23 23 24 24 25 25 25 24 24 25 24 23 22 23 22 22 23 22 22 23 23 22 23 21 18 19 20 21 22 19 18 17 16 17 19 20 24 27 28 29 30 29 29 28 27 27
23 22 22 21 20 19 19 20 21 22 22 22 21 20 20 19 19 19 18 19 19 20 20 20 20 21 21 21 22 23 23 24 23 23 22 22 23 24 24 25 25 25 26 26 26 25 25 25 25 24 24 24 24 24 24 24 24 23 24 24 23 24 22 20 20 20 21 23 22 20 19 18 20 22 23 26 28 27 26 25 25 26 28 28 26
21 21 20 20 19 19 20 20 21 22 22 22 21 20 20 19 19 19 19 20 20 20 21 21 21 21 22 22 23 23 24 24 23 23 24 24 25 26 26 27 27 27 27 26 26 25 25 25 25 24 24 25 26 26 26 25 26 26 26 26 25 25 25 24 23 22 22 24 24 22 20 18 19 20 19 19 22 23 23 24 25 25 26 27 26
20 20 19 19 19 19 20 20 21 22 21 21 20 20 20 19 20 20 20 21 21 21 21 21 22 22 23 23 23 24 24 24 24 25 25 26 27 28 28 29 29 28 27 27 26 26 26 26 26 25 25 26 27 27 27 27 27 27 27 27 27 27 27 26 25 23 22 23 22 21 20 18 18 19 18 18 21 23 23 24 24 24 24 25 26
19 19 18 19 19 19 20 20 21 21 20 19 19 20 20 20 20 21 21 21 21 22 22 22 23 23 24 24 24 24 24 25 26 26 27 28 29 29 30 29 29 28 27 27 27 26 27 26 27 27 26 26 27 27 27 27 28 29 28 28 28 28 28 27 26 24 23 23 22 22 20 19 18 18 18 16 18 21 21 21 23 24 23 23 25
19 18 18 19 19 19 20 20 20 19 19 19 19 20 20 20 21 21 21 21 22 22 23 23 24 24 25 25 25 25 25 26 27 28 28 29 29 30 29 28 28 28 28 28 28 28 28 28 28 28 27 26 26 27 27 28 28 29 29 29 29 29 29 28 27 26 24 23 23 22 20 19 19 18 17 17 19 21 22 22 23 25 25 26 30
18 18 18 19 19 19 20 20 19 19 19 19 20 20 20 21 21 21 21 21 22 23 23 24 24 25 26 26 26 26 26 28 29 28 27 27 28 29 29 28 27 26 26 27 27 27 27 26 26 25 24 25 25 26 26 26 27 28 29 28 29 29 28 28 27 26 24 23 23 22 19 18 21 22 22 25 26 26 26 25 26 28 26 24 27
18 18 19 19 19 19 20 20 20 20 19 20 20 20 20 21 21 21 21 22 23 23 23 24 25 25 26 26 27 27 28 29 29 27 26 26 27 28 29 29 27 25 24 25 25 24 24 24 24 24 24 25 25 26 26 27 27 27 28 29 30 30 29 28 27 26 25 24 25 24 21 20 24 26 28 29 28 26 26 26 25 26 23 17 18
18 18 18 19 19 19 20 20 20 20 20 20 20 20 20 20 21 21 22 23 23 23 23 24 25 25 26 27 28 28 29 30 28 26 26 27 27 28 29 28 27 26 25 25 25 24 24 24 24 23 24 25 26 27 28 29 29 28 29 29 30 31 32 32 31 29 27 26 26 25 24 23 25 27 28 28 27 27 28 27 26 26 24 19 18
18 18 18 19 19 19 20 20 21 21 20 20 20 20 20 21 21 22 23 23 23 23 24 24 25 26 27 28 29 29 30 30 28 26 27 28 28 29 29 28 27 26 24 23 23 23 23 23 24 25 26 26 27 28 29 30 31 30 30 31 31 32 33 34 35 34 32 30 27 25 26 24 23 25 25 24 24 25 24 24 25 25 25 25 26
17 18 19 19 19 19 20 21 21 21 21 20 21 21 21 22 22 23 23 23 23 24 24 25 26 27 27 28 29 30 30 30 29 27 27 28 28 29 29 28 26 24 23 22 22 23 24 25 26 27 27 27 27 28 28 29 30 31 32 33 34 34 34 35 36 35 35 34 33 33 35 34 32 33 33 31 30 29 27 24 25 27 28 30 32
18 19 20 19 19 19 19 20 20 21 20 21 21 21 21 22 23 23 24 24 24 24 25 26 26 27 27 28 29 31 31 31 28 27 27 27 27 28 28 26 24 24 24 24 24 25 25 24 25 27 27 27 27 26 26 28 29 31 32 33 34 35 35 35 35 35 36 36 37 38 38 37 38 39 39 38 38 38 37 35 34 33 32 31 31
19 20 20 19 19 18 18 19 19 20 20 20 21 22 22 23 23 24 24 24 24 24 25 26 27 27 27 27 29 31 32 31 28 27 27 27 27 27 27 27 26 25 25 25 26 25 24 24 26 27 27 27 27 25 25 27 29 31 31 32 33 34 34 35 35 35 36 37 37 39 39 39 40 40 40 40 39 40 40 38 36 34 29 25 24
20 20 19 19 18 17 17 18 18 19 19 20 22 22 23 23 24 23 24 24 25 25 26 26 26 27 27 28 29 31 33 32 29 27 27 26 26 27 27 25 24 24 24 25 26 25 25 25 25 26 27 28 27 25 25 27 29 31 30 30 31 32 33 33 32 32 34 35 35 36 35 34 34 32 32 31 30 30 29 28 29 28 24 17 15
20 19 18 18 17 17 16 17 18 19 20 21 22 23 23 23 24 23 23 24 25 25 26 26 27 27 28 29 29 30 32 32 29 27 27 25 25 27 26 25 24 24 25 25 26 26 27 26 25 26 28 28 27 26 26 27 30 30 28 27 28 29 28 28 30 33 35 34 33 33 32 31 29 28 28 28 25 22 19 17 20 20 18 14 13
19 18 17 16 16 16 17 17 18 19 20 22 22 23 23 24 24 23 23 24 25 26 26 26 28 28 28 29 29 29 31 32 30 28 27 26 25 26 26 26 25 25 25 25 26 27 27 26 24 24 26 27 28 27 27 28 28 27 26 26 25 25 27 31 33 31 27 24 23 25 28 30 30 30 30 29 27 26 23 20 19 17 16 15 16
17 16 16 16 16 17 17 18 19 20 21 22 22 23 23 24 24 24 24 25 26 26 26 26 28 29 28 28 29 29 30 31 31 29 27 26 25 26 26 26 25 24 24 25 26 26 25 25 24 23 24 26 27 27 27 27 27 27 27 27 25 28 31 29 22 16 13 15 18 22 25 28 30 31 31 30 30 30 29 25 21 20 20 20 19
16 16 16 16 17 18 18 19 20 20 21 22 22 23 23 24 24 24 25 25 26 26 27 26 27 29 29 28 29 29 30 30 30 28 26 26 25 25 26 26 24 24 24 25 25 25 25 26 26 25 24 24 25 27 28 28 30 31 30 28 28 29 23 14 9 10 15 19 22 25 27 29 30 32 32 32 31 31 30 28 24 22 22 22 21
15 16 16 17 18 19 19 19 20 21 21 22 23 24 24 24 25 25 25 25 26 27 27 26 26 28 29 29 29 29 29 29 29 28 27 26 25 25 26 27 25 24 25 25 25 25 24 23 23 22 21 22 25 28 30 32 33 31 28 26 25 18 9 6 11 17 20 21 23 25 26 27 28 29 30 30 30 30 30 29 26 23 23 24 24
16 16 17 18 19 20 20 21 21 21 22 22 23 25 25 25 25 25 25 25 26 26 26 25 25 27 28 29 29 29 28 28 28 28 26 25 24 24 25 26 26 26 26 25 23 22 21 20 21 22 23 26 30 32 32 31 27 23 21 20 16 11 10 15 19 19 19 21 22 22 24 24 25 26 26 27 28 28 27 26 25 23 22 23 24
15 17 18 19 20 21 21 22 22 22 22 22 23 24 25 26 26 25 24 24 24 25 25 24 23 24 26 27 28 28 28 28 27 26 25 24 24 24 25 26 28 28 27 24 22 21 21 21 23 24 26 28 30 29 26 23 20 18 17 15 13 14 18 21 20 18 19 20 20 21 23 22 22 23 23 23 23 23 23 24 25 24 24 24 25
16 18 19 20 22 22 23 23 23 23 23 22 23 24 25 25 26 25 24 23 23 24 24 23 22 22 23 25 27 28 28 28 27 26 25 25 25 25 26 27 28 28 28 27 25 24 23 24 25 25 25 26 26 25 23 21 19 17 15 14 16 20 21 20 19 18 18 19 20 21 21 20 20 21 21 21 22 23 25 28 30 30 29 29 30
18 19 20 22 22 22 23 24 24 24 23 23 23 24 24 24 26 25 23 22 23 23 23 23 22 21 22 24 26 28 28 28 28 27 26 27 28 26 25 26 28 28 29 29 28 26 25 25 25 25 25 25 24 24 23 20 17 16 17 19 21 21 20 19 19 18 18 19 19 19 20 21 21 21 21 22 24 26 26 27 29 30 29 28 29
19 20 21 22 22 22 23 24 24 24 24 23 23 24 23 23 25 26 24 23 22 22 22 22 21 21 22 24 26 28 29 29 29 30 29 29 28 26 26 27 28 28 28 27 26 25 25 25 25 25 25 24 23 23 23 22 21 23 24 24 23 21 20 19 18 17 17 18 19 20 22 22 21 21 22 22 24 24 23 22 23 25 25 23 24
19 21 21 22 23 23 23 23 24 24 24 24 24 24 24 23 25 26 26 24 24 24 23 23 23 23 24 25 26 27 28 28 30 30 28 26 26 26 27 27 27 27 27 27 26 26 26 27 27 26 26 26 26 26 26 26 26 25 24 23 22 21 21 19 18 18 18 19 19 20 21 20 21 21 21 22 22 22 19 19 21 23 22 21 20
19 21 21 22 23 23 23 23 23 23 24 25 25 25 25 24 25 27 27 25 24 25 25 26 27 26 27 28 28 27 26 27 27 25 23 23 25 26 27 28 28 28 27 26 27 27 27 26 27 26 26 27 26 26 26 25 23 21 21 20 21 20 19 18 18 18 18 17 18 18 19 20 21 21 21 21 21 19 19 20 22 22 21 19 19
20 21 21 22 23 23 22 22 22 22 23 25 26 27 27 24 22 24 26 25 23 23 25 28 28 27 28 29 28 26 25 23 21 20 22 25 26 26 26 26 25 25 26 25 25 24 21 19 20 20 20 21 21 21 21 20 19 19 18 18 18 18 18 17 17 16 16 16 17 18 18 19 20 20 20 19 18 19 19 19 18 19 18 17 19
20 22 22 22 23 22 21 22 22 22 23 24 24 27 28 27 24 22 22 23 23 23 23 25 26 25 25 25 23 22 21 20 19 21 24 26 24 21 19 18 19 21 22 19 17 16 14 13 14 14 14 14 16 17 18 17 17 17 17 17 17 16 16 16 15 14 15 16 16 17 18 19 19 19 18 17 17 18 18 17 17 19 19 18 19
20 22 22 23 22 21 21 22 22 22 23 23 23 23 25 27 28 25 21 19 20 21 23 23 23 22 22 22 22 21 21 20 21 22 23 21 18 16 16 19 22 20 15 11 11 11 12 13 14 15 15 16 17 18 18 18 17 16 15 16 16 15 15 15 14 13 14 16 16 17 18 18 18 17 16 16 17 17 17 17 17 18 18 18 19
20 22 22 22 22 22 22 22 22 22 23 23 23 22 22 22 25 27 27 23 20 20 20 20 21 20 20 20 20 21 22 21 21 21 20 19 18 18 19 20 18 12 8 9 10 11 11 13 15 16 17 17 18 18 17 17 17 16 15 15 15 15 14 13 13 13 14 15 16 17 18 17 17 17 17 17 16 17 18 18 18 18 18 18 18
19 21 21 21 22 22 22 22 23 23 23 22 22 23 23 22 22 24 26 27 25 23 20 18 17 18 20 20 20 21 22 22 21 20 20 19 19 19 17 14 11 9 10 12 13 13 13 14 15 15 16 16 17 17 17 17 16 15 14 14 15 14 14 13 12 13 13 14 16 17 17 16 16 17 17 17 17 18 19 19 19 19 18 16 17
18 19 20 20 21 22 22 22 23 23 23 23 23 23 23 23 23 22 22 22 23 25 26 24 21 20 21 22 21 21 21 21 21 20 20 20 20 17 12 9 10 12 15 15 15 15 14 14 14 14 15 15 15 16 16 16 15 15 14 14 14 14 13 12 12 12 13 14 15 16 15 15 16 16 16 17 17 18 19 18 17 17 16 16 17
17 18 19 19 20 21 22 22 23 23 24 24 24 24 23 23 22 22 22 22 22 24 28 30 29 27 25 23 21 21 20 20 20 21 21 20 19 15 11 10 11 13 14 15 15 15 15 15 16 15 15 15 16 16 16 16 15 15 14 14 14 13 13 12 12 12 13 13 14 14 15 15 16 16 16 17 17 18 19 18 16 16 16 16 17
16 17 18 19 20 21 22 23 23 24 24 24 23 23 23 22 22 22 22 22 23 23 26 28 29 29 28 25 23 22 21 21 21 21 21 20 19 17 16 16 15 15 15 15 16 16 17 17 17 16 16 16 16 15 15 15 15 14 14 13 14 14 13 12 12 12 13 13 14 15 15 15 15 15 15 17 18 18 18 17 16 16 17 17 17
15 16 18 19 20 21 23 24 24 23 23 23 22 22 23 23 22 22 22 22 23 23 24 25 24 24 25 27 26 25 24 23 22 22 22 21 20 20 20 19 18 18 18 18 18 18 19 19 18 18 17 16 15 15 15 15 14 14 14 13 14 14 13 13 12 13 14 14 14 15 15 15 15 15 16 17 18 18 17 17 16 16 16 17 17
15 16 18 19 21 22 22 23 23 23 22 22 22 22 22 22 21 21 21 22 22 22 22 23 23 23 24 26 26 24 23 22 22 22 23 22 21 20 19 19 19 19 19 19 19 19 20 20 19 19 17 16 15 15 15 15 15 14 13 13 14 14 14 13 13 13 13 13 14 15 15 15 15 15 16 17 18 18 18 17 17 16 16 16 16
15 17 19 20 21 22 22 21 22 22 22 22 22 21 21 21 21 21 21 21 21 22 22 22 23 24 24 24 23 22 21 21 20 21 21 20 19 19 18 18 19 19 20 20 20 20 20 20 19 19 18 17 15 15 15 15 15 14 13 13 14 14 14 13 13 13 12 13 14 15 14 14 14 15 17 17 17 17 17 17 17 17 17 17 18
17 19 21 22 21 21 21 21 22 22 22 22 22 21 22 22 21 21 22 21 21 22 22 22 24 24 24 23 22 21 21 21 20 20 19 19 19 19 20 20 20 20 21 21 20 20 20 20 19 18 17 16 15 15 15 15 14 14 14 14 14 14 15 14 13 13 12 13 14 14 14 14 14 15 16 17 16 17 17 17 17 17 17 17 18
18 20 22 22 21 21 21 21 22 22 21 22 22 21 22 22 21 21 21 21 21 22 22 23 24 24 24 23 21 21 22 22 22 21 21 21 21 21 21 21 21 21 21 21 20 20 20 19 18 17 16 16 16 15 15 15 15 15 14 14 14 14 15 14 14 14 13 12 13 14 14 14 14 14 15 17 17 18 18 18 17 17 17 17 18
20 21 22 21 21 20 21 22 22 22 22 22 21 21 21 21 21 21 21 22 22 22 22 23 23 24 23 23 21 21 22 22 22 22 22 21 21 21 21 21 21 22 22 21 20 19 19 19 18 17 15 15 15 15 15 15 15 14 14 14 14 14 14 15 14 13 12 12 13 14 14 14 14 14 16 17 17 19 19 17 17 17 17 17 18
20 20 20 20 20 20 21 21 21 22 22 21 21 21 20 21 21 22 22 22 22 22 22 22 23 23 23 22 21 20 21 21 21 21 21 21 21 21 21 21 21 21 21 20 19 18 18 18 18 16 15 14 14 14 14 14 14 14 14 14 14 14 15 15 15 13 13 13 14 14 14 14 14 15 16 17 17 18 18 17 16 17 17 17 17
19 18 19 20 20 21 21 21 21 21 22 21 22 22 21 21 21 21 21 21 21 21 21 22 22 22 22 21 20 20 20 20 20 20 21 21 21 21 21 21 21 21 21 20 18 16 16 17 17 16 14 13 13 14 14 14 13 14 13 13 14 15 15 15 15 14 14 14 14 14 14 14 14 15 16 16 17 17 18 18 18 17 17 17 17
17 17 18 20 20 21 22 21 21 21 21 21 22 22 21 21 20 20 20 21 20 20 21 21 21 21 21 20 20 19 19 20 20 20 20 20 21 21 21 21 21 21 20 19 17 16 15 16 16 15 14 13 13 13 13 13 12 13 13 13 14 15 15 14 14 14 14 14 13 13 13 14 15 16 16 16 17 17 18 18 18 17 17 18 18
17 17 18 19 20 21 22 22 22 22 21 21 21 21 21 21 20 20 20 20 20 20 20 20 20 20 20 20 20 20 19 19 19 19 20 20 20 21 21 21 20 20 19 18 17 15 14 14 14 13 12 12 13 13 12 12 12 12 13 13 13 14 14 14 13 13 13 12 12 12 14 15 16 16 15 16 17 18 18 18 18 18 18 19 19
17 18 19 19 20 21 22 22 22 21 21 21 21 21 20 21 20 20 20 20 20 19 20 19 19 20 19 19 19 19 19 20 20 20 20 20 20 20 20 20 20 19 18 18 17 15 14 13 13 12 12 12 12 12 12 12 11 12 12 13 13 13 13 13 13 13 12 11 11 12 14 14 14 15 16 17 18 17 17 18 19 19 19 20 19
18 18 19 19 20 21 21 22 22 22 22 22 22 22 21 21 20 20 20 19 19 19 19 19 19 19 19 19 19 19 19 19 19 19 19 19 20 20 20 20 19 18 17 17 16 13 12 13 13 12 12 12 12 12 12 11 11 12 12 12 12 12 12 12 12 12 12 11 12 13 14 14 15 16 17 17 18 18 18 19 20 19 19 19 18
18 18 19 20 20 21 22 22 22 22 22 21 22 22 21 21 20 20 19 19 19 19 19 19 19 19 19 19 19 19 19 19 19 19 19 19 19 20 19 19 17 16 16 15 14 12 11 12 13 13 13 12 11 11 11 11 11 12 12 12 13 13 12 11 11 11 11 11 12 13 14 15 16 17 17 17 18 18 19 19 18 18 18 18 18
19 19 19 20 21 21 22 22 22 22 21 21 21 21 21 20 20 20 19 19 19 19 19 19 19 19 20 19 19 19 19 18 18 18 19 19 19 19 19 17 16 15 14 13 12 11 11 12 13 13 14 13 11 11 12 11 11 12 12 13 12 11 9 9 9 9 10 11 12 14 15 15 15 15 16 17 17 18 18 17 17 17 16 16 17
Wind_Direction
234 239 243 243 242 242 246 256 267 272 273 270 264 261 260 262 265 270 274 279 284 283 279 275 274 273 274 277 280 282 285 288 292 295 296 294 291 290 291 291 290 289 290 289 288 287 286 286 287 289 290 290 289 289 288 287 287 286 284 283 279 275 274 272 273 283 287 285 284 288 292 293 292 293 295 296 298 300 300 301 301 300 297 297 294
235 241 244 241 239 242 250 261 267 268 267 263 258 256 258 261 265 269 273 278 281 279 276 273 273 274 276 278 280 281 282 286 290 293 292 288 286 286 289 289 289 288 287 287 286 286 286 286 286 288 289 288 287 287 286 286 286 285 284 281 278 275 272 272 274 279 286 287 285 286 289 288 287 291 293 293 295 299 301 300 300 299 299 299 297
238 244 242 238 238 245 256 263 265 264 262 258 255 255 258 262 266 269 274 278 278 276 274 274 274 275 276 277 279 280 282 286 289 291 288 284 283 284 286 286 285 284 283 283 283 284 284 285 285 287 287 286 285 284 284 283 283 282 282 279 277 277 274 271 271 274 282 287 286 286 289 286 284 288 291 291 294 296 295 294 294 296 297 297 297
240 240 235 235 241 250 260 263 263 261 259 257 257 258 260 263 266 271 275 277 276 275 274 274 275 276 275 275 277 279 282 285 288 287 284 282 282 284 285 285 283 282 281 281 281 282 282 282 283 285 285 283 283 283 282 281 280 279 280 280 277 277 276 271 268 272 279 284 284 284 287 287 284 286 288 288 289 290 290 290 293 295 297 297 297
236 232 231 237 247 256 262 264 262 260 259 259 260 261 263 266 269 272 275 278 278 275 273 273 274 274 273 274 276 278 281 284 284 284 283 282 283 284 285 284 283 282 281 280 279 279 279 279 281 283 282 280 280 281 282 281 280 279 277 278 278 277 276 272 269 272 275 279 283 284 284 283 282 282 283 284 287 289 288 288 290 293 295 295 293
228 228 234 243 253 260 263 264 263 263 261 261 262 264 267 268 270 273 278 281 279 275 273 272 272 272 272 274 277 279 282 283 282 282 282 283 285 285 285 285 284 282 280 279 279 279 278 279 280 281 280 278 278 279 281 281 281 280 278 278 279 278 276 273 272 271 272 275 279 282 281 279 279 279 279 279 281 284 287 287 287 287 288 290 290
227 233 241 250 257 262 265 267 267 264 262 262 266 268 269 269 272 276 280 281 278 275 273 272 272 272 272 274 277 280 282 282 282 282 282 284 286 287 287 286 284 282 280 280 281 281 280 280 280 281 280 279 279 279 280 280 280 279 278 279 279 277 274 273 272 270 269 272 274 277 278 277 277 276 276 277 275 276 281 285 286 284 283 285 288
232 239 247 253 259 265 270 272 268 264 263 266 268 269 270 271 275 279 280 277 275 273 273 273 274 273 273 274 277 280 281 281 281 282 283 285 286 287 287 286 284 283 283 284 284 283 283 283 282 282 281 280 280 280 279 279 278 277 278 279 277 274 271 270 270 267 265 267 270 272 274 274 273 273 274 275 271 270 273 275 278 281 284 286 287
238 245 250 256 263 269 273 271 266 264 265 266 268 269 271 275 278 279 277 274 274 274 274 274 273 272 273 274 277 279 279 279 281 283 283 285 287 287 287 285 282 281 282 283 284 283 282 282 281 281 280 280 280 279 278 277 274 272 273 275 272 269 267 265 264 263 262 264 265 267 268 267 267 269 270 267 265 269 276 278 278 280 283 285 284
242 248 253 261 269 273 273 270 266 265 265 266 267 269 274 277 278 276 274 274 275 275 275 273 271 271 273 274 277 278 278 281 283 282 280 280 282 282 281 279 275 274 276 278 278 277 276 276 277 277 276 275 274 272 271 269 268 267 268 269 267 265 263 260 258 257 257 258 261 264 263 261 262 263 264 265 267 270 273 273 274 277 280 282 282
244 250 257 266 272 273 271 269 266 265 265 266 268 272 277 278 275 274 275 277 277 277 275 273 272 273 274 276 277 278 280 283 284 280 276 275 276 276 276 276 274 272 273 273 272 272 271 271 273 272 270 268 267 267 268 268 268 269 269 269 269 268 266 262 259 258 255 254 258 261 259 259 263 264 264 265 267 266 265 264 266 271 273 272 277
247 253 262 269 272 272 270 267 266 265 266 267 271 277 280 277 273 274 277 280 282 279 276 275 275 276 277 277 278 279 282 285 283 278 276 277 277 276 276 276 276 275 273 272 271 271 271 271 270 269 267 266 266 269 270 270 270 270 269 268 267 267 267 265 264 262 259 257 258 258 257 259 263 263 262 264 264 261 260 259 257 261 264 264 266
251 259 266 271 272 271 268 266 265 266 268 272 276 279 278 274 273 275 279 283 284 280 278 278 279 279 279 279 280 281 283 286 283 278 277 279 278 278 278 279 279 278 275 271 270 269 268 269 268 266 266 266 266 266 268 270 272 272 271 269 266 266 267 267 267 267 268 268 269 269 268 268 269 268 267 268 267 262 258 255 254 254 256 258 259
256 263 268 271 271 270 267 265 265 267 271 276 278 277 275 274 275 277 280 283 282 280 280 280 281 281 281 281 282 282 284 287 284 279 278 279 279 280 281 281 280 279 276 272 271 270 270 270 268 268 269 268 267 269 271 273 274 274 273 272 270 269 268 268 270 272 273 274 273 272 272 272 272 271 270 269 266 262 258 255 254 253 252 256 260
259 264 267 269 269 268 265 265 267 271 276 279 277 275 275 275 277 279 281 282 282 282 282 282 282 282 282 282 282 282 284 286 283 278 278 279 280 281 283 282 282 281 278 276 276 277 277 273 270 270 270 270 271 271 271 272 272 272 271 271 272 272 271 272 273 274 275 274 271 270 270 271 271 271 271 269 265 262 261 258 257 257 257 261 264
259 262 264 266 268 267 267 268 271 276 280 279 277 276 276 277 279 281 282 282 282 282 282 282 283 283 283 283 282 281 284 286 282 279 280 281 281 282 283 283 282 279 276 279 281 281 279 275 274 272 271 271 273 272 270 269 267 265 265 266 269 270 271 273 275 275 274 273 271 271 271 272 273 273 273 270 266 264 263 259 257 257 257 260 262
257 261 265 269 272 272 272 273 276 280 281 279 277 278 279 281 282 283 282 281 282 282 283 284 284 283 283 283 281 281 284 286 284 281 281 281 281 282 282 281 279 275 276 280 282 282 281 280 277 274 272 274 275 275 274 271 265 262 262 262 263 264 266 270 274 276 277 277 277 277 276 277 277 278 280 280 276 274 268 258 254 253 248 248 253
260 266 272 278 280 279 278 278 281 282 281 280 280 281 283 283 284 284 282 281 282 283 284 285 284 283 282 281 281 281 282 285 284 281 282 282 281 281 282 280 277 276 277 280 281 281 281 281 277 273 273 274 274 274 274 269 266 265 265 264 263 263 267 272 276 278 281 283 283 283 285 287 288 289 292 294 294 297 293 280 273 266 251 242 247
270 277 283 287 286 283 282 281 282 282 282 282 283 284 285 286 286 285 283 281 283 284 285 283 282 282 281 281 281 280 280 283 284 282 282 282 281 280 280 278 276 276 276 277 278 278 278 278 278 275 272 270 271 272 272 269 268 268 269 270 269 270 275 278 278 277 277 277 278 281 284 285 288 291 294 294 294 296 296 294 293 288 275 264 264
282 287 289 289 286 283 282 282 283 283 284 285 287 286 287 287 286 285 284 284 284 285 284 282 281 282 282 281 281 279 279 281 285 284 282 280 279 278 277 276 274 273 275 276 275 275 274 275 280 281 276 272 272 272 273 273 273 274 274 272 271 274 277 275 269 266 272 279 285 290 290 288 289 292 296 297 296 295 294 291 286 280 275 273 272
288 289 288 287 284 283 283 283 285 286 287 289 289 287 287 286 286 285 285 285 285 284 283 282 281 281 282 281 280 281 280 282 285 285 281 278 278 277 276 275 273 272 274 273 271 270 270 273 279 280 274 271 272 273 275 276 277 277 277 274 274 277 275 265 259 280 295 299 301 301 299 297 295 295 296 297 297 295 293 291 285 276 270 267 267
289 289 287 285 284 284 285 286 288 289 290 290 288 288 288 287 286 286 285 285 284 283 282 281 280 280 282 282 281 282 283 284 285 285 283 279 277 275 274 273 272 272 271 269 268 268 269 270 271 267 263 264 268 271 274 276 277 279 280 279 281 283 281 290 305 307 308 309 307 303 300 299 297 296 296 295 294 294 293 292 289 282 272 265 262
290 288 285 284 284 286 287 289 290 291 291 291 289 288 288 287 286 285 284 284 283 282 281 280 279 279 280 281 282 283 285 286 286 286 285 282 277 275 275 274 273 274 273 270 268 269 267 265 262 259 260 265 268 270 273 276 281 285 285 286 293 303 310 310 312 313 310 307 303 297 295 294 293 292 292 292 293 295 295 293 290 285 279 273 266
289 285 284 284 285 288 289 291 293 292 292 292 288 286 287 287 286 285 284 282 280 278 279 278 276 276 278 280 282 284 286 288 288 288 287 284 279 277 277 277 277 280 282 281 278 274 272 269 267 266 267 268 270 274 278 284 290 291 290 295 303 304 304 307 310 310 305 300 295 290 289 289 288 288 290 292 294 293 289 285 282 279 277 275 271
284 283 284 284 286 289 290 291 293 293 293 291 287 286 286 286 285 285 283 280 276 274 275 276 274 273 274 276 279 284 287 289 289 289 289 287 283 280 278 278 279 283 285 284 283 282 279 276 275 275 275 275 277 283 287 292 294 290 288 292 295 295 299 303 304 302 297 293 289 286 285 286 286 286 288 289 287 284 283 283 283 283 281 279 275
282 282 283 284 287 289 289 291 292 293 294 291 288 286 286 285 284 283 280 277 273 271 271 272 272 271 271 273 276 281 285 287 288 289 289 287 286 283 279 277 277 279 280 281 281 282 280 279 280 280 280 280 283 287 290 290 286 280 280 284 287 291 295 296 297 297 294 290 287 284 284 287 288 287 287 286 285 286 287 288 288 288 287 286 282
281 282 283 286 288 287 288 290 292 294 295 293 290 287 285 283 282 280 277 274 272 270 269 269 268 266 268 271 273 276 279 281 281 284 286 286 284 282 278 276 277 278 278 278 279 280 279 280 280 280 279 279 279 279 279 277 274 274 277 280 283 286 290 292 293 292 287 285 286 286 288 291 291 290 290 289 288 288 287 286 286 287 289 288 283
281 282 284 286 286 286 287 289 291 294 294 293 290 287 285 283 280 278 277 274 270 269 268 266 265 264 264 268 270 272 272 271 273 278 282 281 279 277 275 275 276 275 275 276 277 278 278 277 276 274 273 273 272 271 270 270 270 271 272 274 277 282 286 289 287 282 280 282 286 289 291 293 292 292 293 292 288 286 285 285 285 285 285 284 277
281 282 283 283 283 285 287 289 291 293 293 293 292 289 288 286 283 282 283 279 274 272 270 267 267 266 264 264 263 263 264 269 274 277 277 275 274 272 271 272 274 273 274 275 273 270 267 266 265 265 265 264 264 265 265 264 265 264 266 271 276 281 285 285 282 281 283 285 285 288 290 291 292 293 292 288 286 287 290 289 286 283 279 274 270
280 280 281 282 283 286 288 290 292 293 292 293 294 294 294 291 283 280 283 284 281 275 268 267 270 269 266 265 265 264 265 272 278 279 277 277 276 272 269 269 268 268 269 268 263 257 253 252 253 254 255 255 254 255 257 260 262 265 268 272 276 279 282 280 279 280 282 282 283 286 288 290 291 291 288 286 288 293 293 289 285 282 279 274 271
277 278 280 282 285 287 288 290 292 292 292 292 292 293 296 296 290 281 277 279 282 277 271 272 276 276 274 276 280 279 276 279 285 285 283 282 282 280 278 273 269 269 269 263 252 247 247 249 253 255 255 255 255 258 262 265 267 268 270 272 274 275 276 276 276 278 279 281 284 286 288 288 286 285 286 289 293 294 293 290 286 283 279 274 271
274 277 281 283 286 288 288 289 291 291 290 291 290 289 291 295 298 296 288 279 278 280 281 282 283 284 283 285 288 289 287 287 287 287 287 291 293 293 287 280 277 276 267 246 237 245 252 257 261 263 263 262 263 265 266 266 264 264 266 269 271 271 271 273 276 276 277 281 285 287 288 286 283 285 290 293 293 291 291 291 287 283 280 275 272
276 279 282 284 286 288 288 289 290 289 289 289 289 288 286 287 293 298 300 297 290 284 282 283 285 290 291 291 292 293 293 291 289 290 296 300 297 292 287 281 278 273 257 250 260 265 262 261 263 263 262 262 263 263 262 259 259 260 262 265 268 270 272 273 274 273 275 280 285 286 285 282 284 290 293 291 290 291 291 290 286 282 280 276 274
279 280 283 284 286 287 288 289 290 290 290 288 287 286 284 283 284 289 296 302 302 298 291 285 283 288 292 294 295 294 294 293 294 296 298 296 291 290 286 272 257 256 267 276 281 278 271 267 264 262 261 261 260 259 256 254 255 257 260 263 267 270 273 273 271 271 275 281 285 286 285 285 288 292 292 291 292 291 289 287 286 282 278 275 275
282 282 283 284 285 286 289 291 291 290 289 288 286 285 285 284 284 282 284 289 295 297 297 295 291 290 291 292 293 293 292 293 293 293 292 290 290 293 286 264 258 269 275 279 280 277 273 270 268 268 267 264 260 257 254 252 253 256 258 263 266 269 272 271 268 271 277 282 285 286 286 288 290 291 290 291 293 292 289 287 286 282 278 278 279
284 285 286 287 289 290 291 292 291 290 289 289 288 287 285 283 282 280 280 280 282 286 291 294 297 297 296 293 292 293 292 291 291 291 290 291 294 297 297 292 291 285 277 275 277 274 269 267 268 270 270 266 262 258 254 253 255 256 258 262 266 270 271 268 268 273 278 279 281 284 288 291 291 291 292 293 293 291 288 286 285 284 283 284 283
287 287 289 292 295 294 293 293 292 292 291 290 288 287 284 282 280 279 279 279 279 280 284 290 295 299 299 298 299 299 297 294 293 292 292 293 296 299 300 296 289 279 272 271 273 271 269 267 266 267 267 264 262 260 257 256 256 256 257 261 265 269 270 268 268 271 274 276 281 286 290 292 290 290 293 294 294 292 289 287 286 287 287 288 289
289 291 294 297 298 296 294 294 294 293 292 289 286 284 282 282 281 279 278 278 278 279 282 285 288 290 291 295 300 301 300 297 293 291 291 293 292 291 290 286 280 273 270 269 270 271 271 271 270 269 267 264 261 261 260 259 257 255 257 262 266 267 266 264 263 264 268 275 282 286 289 290 289 291 294 293 291 290 289 289 289 289 290 290 289
294 296 299 300 298 296 295 294 294 293 291 288 286 285 282 281 281 280 279 279 279 279 280 282 282 282 284 290 296 298 295 290 286 285 287 288 286 283 279 275 271 268 267 269 271 271 271 273 275 274 271 267 264 263 261 260 257 255 258 264 267 265 262 262 263 264 267 274 281 286 288 288 289 294 297 294 290 289 289 290 290 289 291 291 287
299 301 302 302 300 298 297 294 292 291 290 288 287 285 282 280 280 280 280 281 280 280 281 280 279 282 285 289 292 292 286 281 279 280 281 281 281 281 277 272 270 269 269 271 272 272 272 274 276 276 274 270 267 265 262 260 257 255 258 263 265 264 263 263 265 266 268 273 280 284 286 287 291 298 299 294 292 291 291 291 293 291 290 290 289
303 303 303 303 302 300 298 294 291 291 291 289 288 285 282 282 282 282 282 281 280 281 281 280 280 284 288 289 289 289 287 284 284 284 283 281 280 280 278 276 274 273 272 274 274 274 274 274 275 276 275 272 269 267 263 260 257 256 258 262 264 264 264 263 264 265 266 272 279 281 284 288 293 298 297 295 295 296 294 292 293 292 289 290 291
304 303 304 304 303 301 297 294 294 295 293 289 287 285 284 285 285 284 283 282 282 282 282 282 284 287 289 289 290 289 288 286 286 285 282 281 280 278 276 275 275 274 275 277 277 278 277 275 275 274 272 270 271 269 264 260 258 256 258 262 263 264 263 262 263 264 264 269 275 278 283 290 293 293 295 296 297 298 297 294 294 293 290 291 292
304 304 304 304 303 300 298 297 297 296 293 291 290 289 288 287 286 285 284 283 283 283 282 284 287 289 290 290 290 288 285 283 282 281 280 279 278 276 275 275 274 275 277 278 279 280 279 277 275 273 270 270 273 270 265 263 261 257 259 262 263 263 264 263 262 262 262 266 272 276 282 290 292 292 296 298 298 298 298 295 294 293 292 292 293
305 305 304 303 303 302 300 299 298 296 295 295 293 291 291 289 288 287 286 284 283 283 283 284 287 289 290 291 290 286 283 281 280 279 279 278 277 277 277 276 276 277 278 278 279 280 280 278 276 272 268 270 274 271 266 263 260 258 260 263 263 264 265 264 262 260 259 263 270 277 283 288 290 292 295 297 297 298 297 295 294 295 295 295 294
304 305 305 304 304 302 301 300 299 298 298 297 295 294 294 293 290 289 287 285 284 285 285 286 288 289 289 290 289 286 284 283 281 279 278 278 278 278 279 279 279 280 280 279 279 280 281 280 277 272 267 270 276 275 268 262 259 258 260 262 264 266 267 266 264 261 259 261 268 275 281 285 289 292 294 296 297 296 295 294 295 295 295 295 294
306 306 305 304 303 302 301 302 301 300 299 298 297 297 297 296 293 291 289 288 288 288 288 289 290 289 289 289 289 287 286 285 283 281 280 279 279 280 280 281 281 282 282 281 279 278 280 281 278 272 268 271 277 276 269 262 258 259 261 264 267 269 270 269 266 259 255 257 263 270 278 284 288 291 291 292 295 296 294 293 294 294 293 294 294
309 307 305 304 303 301 301 301 301 300 299 298 297 297 297 297 296 294 292 291 291 290 290 290 290 290 289 290 289 289 288 287 285 283 282 281 281 282 282 282 283 284 284 283 280 277 280 282 279 272 269 273 276 275 270 264 260 261 265 267 270 270 270 268 261 254 252 253 258 267 277 283 287 289 291 292 295 296 293 293 295 295 294 295 295
312 309 307 305 302 301 300 301 301 300 299 299 299 298 297 297 296 295 294 294 293 292 291 291 291 291 291 291 291 291 291 289 287 285 284 283 283 284 285 285 286 286 286 284 280 278 280 283 279 271 269 273 275 273 271 267 264 265 269 270 271 271 270 265 258 250 248 250 257 268 276 279 281 287 291 293 294 293 291 292 295 296 296 296 295
314 310 308 305 303 300 300 300 300 299 299 300 300 299 298 298 296 296 296 296 294 294 293 292 293 293 293 293 294 293 292 290 288 287 286 286 286 287 288 288 288 289 287 284 281 280 282 283 279 272 268 272 274 274 273 270 268 269 272 272 271 272 271 266 257 249 246 251 260 266 270 273 279 286 290 291 291 291 290 292 294 295 295 296 295
315 313 310 306 304 302 302 301 299 299 300 300 299 298 298 298 297 297 298 297 296 296 295 295 295 296 295 294 295 294 292 291 290 289 289 289 289 290 290 289 289 289 288 285 281 280 280 281 279 274 270 270 272 274 274 272 271 273 274 274 275 274 270 263 256 250 249 254 259 262 267 275 282 286 289 290 290 290 290 291 292 293 294 294 294
317 315 312 308 306 305 304 303 302 301 302 301 299 297 297 297 297 297 298 297 296 297 298 298 297 297 296 295 296 295 293 293 292 292 292 293 293 292 292 291 290 290 289 285 280 277 277 279 280 279 275 272 272 274 275 274 274 275 276 276 275 272 266 262 259 253 250 252 257 265 273 280 283 285 287 289 290 290 290 290 291 293 293 293 295